• în România
  • Lista ţărilor
  • Pe 7 zile
  • Temperatura apei
  • Hartă satelitară
  • Meteo pe hartă
  • Widget-uri
  • user-avatar
    Intrare

    Meteo pe oră la Satif

    Astăzi, 25 Mai, Vineri

    Timp Temperatura Precipitaţii Vânt Presiune Umiditate
    00:00 +20°C° 0 mm 2 m/s 672 mmHg 45%
    01:00 +20°C° 0 mm 2 m/s 672 mmHg 45%
    02:00 +19°C° 0 mm 2 m/s 671 mmHg 45%
    03:00 +19°C° 0 mm 2 m/s 671 mmHg 45%
    04:00 +20°C° 0 mm 2 m/s 671 mmHg 45%
    05:00 +20°C° 0 mm 2 m/s 672 mmHg 44%
    06:00 +21°C° 0 mm 2 m/s 672 mmHg 44%
    07:00 +24°C° 0 mm 3 m/s 673 mmHg 39%
    08:00 +26°C° 0 mm 3 m/s 673 mmHg 33%
    09:00 +27°C° 0 mm 4 m/s 674 mmHg 27%
    10:00 +28°C° 0 mm 5 m/s 674 mmHg 26%
    11:00 +29°C° 0 mm 5 m/s 674 mmHg 24%
    12:00 +30°C° 0 mm 6 m/s 674 mmHg 22%
    13:00 +30°C° 0 mm 6 m/s 673 mmHg 22%
    14:00 +30°C° 0 mm 6 m/s 673 mmHg 22%
    15:00 +30°C° 0 mm 6 m/s 673 mmHg 23%
    16:00 +29°C° 0 mm 5 m/s 673 mmHg 27%
    17:00 +27°C° 0 mm 5 m/s 672 mmHg 31%
    18:00 +26°C° 0 mm 4 m/s 672 mmHg 35%
    19:00 +25°C° 0 mm 4 m/s 672 mmHg 36%
    20:00 +24°C° 0 mm 3 m/s 672 mmHg 38%
    21:00 +23°C° 0 mm 2 m/s 672 mmHg 40%
    22:00 +21°C° 0 mm 2 m/s 672 mmHg 44%
    23:00 +20°C° 0 mm 2 m/s 671 mmHg 47%

    Mâine, 26 Mai, Sâmbătă

    Timp Temperatura Precipitaţii Vânt Presiune Umiditate
    00:00 +20°C° 0 mm 1 m/s 671 mmHg 51%
    01:00 +20°C° 0 mm 1 m/s 671 mmHg 52%
    02:00 +20°C° 0 mm 1 m/s 671 mmHg 53%
    03:00 +19°C° 0 mm 1 m/s 671 mmHg 54%
    04:00 +20°C° 0 mm 1 m/s 671 mmHg 51%
    05:00 +20°C° 0 mm 2 m/s 672 mmHg 49%
    06:00 +21°C° 0 mm 2 m/s 672 mmHg 46%
    07:00 +24°C° 0 mm 3 m/s 673 mmHg 39%
    08:00 +27°C° 0 mm 4 m/s 673 mmHg 32%
    09:00 +29°C° 0 mm 5 m/s 674 mmHg 25%
    10:00 +30°C° 0 mm 5 m/s 674 mmHg 23%
    11:00 +30°C° 0 mm 5 m/s 674 mmHg 22%
    12:00 +32°C° 0 mm 5 m/s 674 mmHg 21%
    13:00 +32°C° 0 mm 6 m/s 674 mmHg 21%
    14:00 +32°C° 0 mm 6 m/s 674 mmHg 22%
    15:00 +32°C° 0 mm 7 m/s 673 mmHg 23%
    16:00 +30°C° 0 mm 6 m/s 673 mmHg 26%
    17:00 +28°C° 0 mm 5 m/s 673 mmHg 30%
    18:00 +27°C° 0 mm 4 m/s 673 mmHg 34%
    19:00 +26°C° 0 mm 4 m/s 673 mmHg 34%
    20:00 +26°C° 0 mm 4 m/s 674 mmHg 34%
    21:00 +25°C° 0 mm 4 m/s 674 mmHg 34%
    22:00 +23°C° 0,2 mm 4 m/s 674 mmHg 39%
    23:00 +22°C° 0,2 mm 5 m/s 674 mmHg 45%

    Poimâine, 27 Mai, Duminică

    Timp Temperatura Precipitaţii Vânt Presiune Umiditate
    00:00 +21°C° 0,2 mm 5 m/s 673 mmHg 51%
    01:00 +21°C° 0,1 mm 4 m/s 673 mmHg 54%
    02:00 +20°C° 0,1 mm 3 m/s 672 mmHg 57%
    03:00 +20°C° 0,1 mm 2 m/s 672 mmHg 61%
    04:00 +20°C° 0 mm 2 m/s 672 mmHg 58%
    05:00 +21°C° 0 mm 2 m/s 672 mmHg 56%
    06:00 +21°C° 0 mm 2 m/s 672 mmHg 53%
    07:00 +24°C° 0 mm 3 m/s 673 mmHg 46%
    08:00 +26°C° 0 mm 4 m/s 674 mmHg 39%
    09:00 +28°C° 0 mm 5 m/s 674 mmHg 32%
    10:00 +29°C° 0 mm 5 m/s 674 mmHg 29%
    11:00 +30°C° 0 mm 5 m/s 674 mmHg 27%
    12:00 +32°C° 0 mm 6 m/s 674 mmHg 25%
    13:00 +32°C° 0 mm 5 m/s 674 mmHg 25%
    14:00 +32°C° 0 mm 5 m/s 674 mmHg 25%
    15:00 +32°C° 0 mm 4 m/s 673 mmHg 25%
    16:00 +30°C° 0 mm 4 m/s 673 mmHg 30%
    17:00 +29°C° 0 mm 3 m/s 673 mmHg 34%
    18:00 +28°C° 0 mm 3 m/s 673 mmHg 39%
    19:00 +26°C° 0 mm 2 m/s 673 mmHg 44%
    20:00 +25°C° 0 mm 2 m/s 672 mmHg 50%
    21:00 +23°C° 0 mm 2 m/s 672 mmHg 55%
    22:00 +23°C° 0 mm 2 m/s 672 mmHg 58%
    23:00 +21°C° 0 mm 2 m/s 672 mmHg 62%

    28 Mai, Luni

    Timp Temperatura Precipitaţii Vânt Presiune Umiditate
    00:00 +22°C° 0 mm 1 m/s 671 mmHg 65%
    01:00 +20°C° 0 mm 2 m/s 671 mmHg 66%
    02:00 +20°C° 0 mm 2 m/s 670 mmHg 67%
    03:00 +19°C° 0 mm 2 m/s 670 mmHg 68%
    04:00 +19°C° 0 mm 2 m/s 670 mmHg 69%
    05:00 +19°C° 0 mm 2 m/s 670 mmHg 69%
    06:00 +19°C° 0 mm 2 m/s 670 mmHg 69%
    07:00 +21°C° 0 mm 3 m/s 670 mmHg 61%
    08:00 +23°C° 0 mm 4 m/s 671 mmHg 53%
    09:00 +26°C° 0 mm 5 m/s 671 mmHg 45%
    10:00 +27°C° 0 mm 5 m/s 672 mmHg 41%
    11:00 +28°C° 0 mm 6 m/s 672 mmHg 36%
    12:00 +29°C° 0 mm 6 m/s 672 mmHg 32%
    13:00 +29°C° 0 mm 6 m/s 672 mmHg 33%
    14:00 +29°C° 0 mm 6 m/s 671 mmHg 34%
    15:00 +29°C° 0 mm 6 m/s 671 mmHg 36%
    16:00 +27°C° 0 mm 5 m/s 671 mmHg 43%
    17:00 +26°C° 0 mm 4 m/s 670 mmHg 51%
    18:00 +24°C° 0 mm 3 m/s 670 mmHg 58%
    19:00 +21°C° 0 mm 3 m/s 670 mmHg 66%
    20:00 +19°C° 0 mm 3 m/s 670 mmHg 74%
    21:00 +17°C° 0 mm 3 m/s 670 mmHg 82%
    22:00 +17°C° 0 mm 3 m/s 670 mmHg 83%
    23:00 +16°C° 0 mm 3 m/s 670 mmHg 84%

    29 Mai, Marţi

    Timp Temperatura Precipitaţii Vânt Presiune Umiditate
    00:00 +16°C° 0 mm 3 m/s 670 mmHg 85%
    01:00 +16°C° 0 mm 3 m/s 670 mmHg 86%
    02:00 +14°C° 0 mm 3 m/s 670 mmHg 86%
    03:00 +14°C° 0 mm 3 m/s 669 mmHg 87%
    04:00 +14°C° 0 mm 3 m/s 670 mmHg 86%
    05:00 +14°C° 0 mm 3 m/s 670 mmHg 86%
    06:00 +14°C° 0 mm 3 m/s 670 mmHg 85%
    07:00 +16°C° 0 mm 3 m/s 670 mmHg 82%
    08:00 +17°C° 0 mm 3 m/s 670 mmHg 78%
    09:00 +17°C° 0 mm 3 m/s 671 mmHg 75%
    10:00 +18°C° 0 mm 3 m/s 671 mmHg 72%
    11:00 +19°C° 0 mm 3 m/s 671 mmHg 69%
    12:00 +20°C° 0 mm 3 m/s 671 mmHg 66%
    13:00 +20°C° 0 mm 3 m/s 671 mmHg 65%
    14:00 +20°C° 0 mm 3 m/s 671 mmHg 65%
    15:00 +21°C° 0 mm 4 m/s 670 mmHg 64%
    16:00 +20°C° 0 mm 3 m/s 670 mmHg 66%
    17:00 +20°C° 0 mm 3 m/s 670 mmHg 67%
    18:00 +19°C° 0 mm 3 m/s 670 mmHg 69%
    19:00 +18°C° 0 mm 3 m/s 671 mmHg 74%
    20:00 +17°C° 0 mm 2 m/s 671 mmHg 79%
    21:00 +16°C° 0 mm 2 m/s 671 mmHg 84%
    22:00 +16°C° 0 mm 2 m/s 671 mmHg 85%
    23:00 +15°C° 0 mm 2 m/s 670 mmHg 86%

    30 Mai, Miercuri

    Timp Temperatura Precipitaţii Vânt Presiune Umiditate
    00:00 +15°C° 0 mm 2 m/s 670 mmHg 87%
    01:00 +15°C° 0 mm 2 m/s 670 mmHg 87%
    02:00 +14°C° 0 mm 2 m/s 670 mmHg 88%
    03:00 +14°C° 0 mm 2 m/s 669 mmHg 88%
    04:00 +15°C° 0 mm 2 m/s 670 mmHg 85%
    05:00 +15°C° 0 mm 2 m/s 670 mmHg 81%
    06:00 +16°C° 0 mm 2 m/s 670 mmHg 78%
    07:00 +18°C° 0 mm 2 m/s 671 mmHg 68%
    08:00 +19°C° 0 mm 2 m/s 671 mmHg 58%
    09:00 +21°C° 0 mm 3 m/s 672 mmHg 48%
    10:00 +22°C° 0 mm 3 m/s 672 mmHg 45%
    11:00 +24°C° 0 mm 3 m/s 672 mmHg 42%
    12:00 +25°C° 0 mm 4 m/s 672 mmHg 39%
    13:00 +25°C° 0 mm 4 m/s 672 mmHg 41%
    14:00 +25°C° 0 mm 4 m/s 672 mmHg 42%
    15:00 +25°C° 0 mm 5 m/s 672 mmHg 44%
    16:00 +23°C° 0,9 mm 5 m/s 672 mmHg 52%
    17:00 +21°C° 0,9 mm 5 m/s 672 mmHg 61%
    18:00 +19°C° 0,9 mm 5 m/s 671 mmHg 69%
    19:00 +18°C° 0,8 mm 4 m/s 672 mmHg 73%
    20:00 +17°C° 0,8 mm 4 m/s 672 mmHg 78%
    21:00 +16°C° 0,8 mm 3 m/s 672 mmHg 82%
    22:00 +16°C° 0,1 mm 3 m/s 672 mmHg 83%
    23:00 +15°C° 0,1 mm 2 m/s 672 mmHg 84%
    Arată mai mult